Location: ????
(55.2778°N, 39.2433°E)
Time: 00:05:12
(UTC+00:00)

Cosmos 2026 Rocket - Visible Passes

Search period start: 21 July 2024 00:00
Search period end: 31 July 2024 00:00
Orbit: 938 x 1000 km, 82.9° (Epoch: 20 July)

Date Brightness Start Highest point End Pass type
(mag) Time Alt. Az. Time Alt. Az. Time Alt. Az.
21 Jul 6.4 21:53:32 10° N 21:57:48 19° NE 22:02:04 10° E visible
21 Jul 4.4 23:38:02 10° N 23:44:19 69° ENE 23:50:38 10° SSE visible
22 Jul 5.9 22:16:41 10° N 22:21:54 26° ENE 22:27:09 10° ESE visible
23 Jul 4.1 00:01:36 10° NNW 00:07:55 81° W 00:14:16 10° S visible
23 Jul 6.7 20:56:52 10° NNE 20:58:33 11° NE 21:00:12 10° ENE visible
23 Jul 5.3 22:40:01 10° N 22:45:52 38° ENE 22:51:43 10° SE visible
24 Jul 4.3 00:25:16 10° NNW 00:31:22 53° W 00:37:30 10° SSW visible
24 Jul 6.4 21:19:10 10° NNE 21:22:53 16° NE 21:26:36 10° E visible
24 Jul 4.6 23:03:26 10° N 23:09:39 57° ENE 23:15:54 10° SSE visible
25 Jul 6.1 21:42:12 10° N 21:47:04 23° NE 21:51:56 10° ESE visible
25 Jul 4.1 23:26:57 10° N 23:33:18 85° ENE 23:39:42 10° SSE visible
26 Jul 5.5 22:05:28 10° N 22:11:05 32° ENE 22:16:44 10° SE visible
26 Jul 4.1 23:50:35 10° NNW 23:56:50 65° W 00:03:06 10° S visible
27 Jul 6.5 20:44:55 10° NNE 20:47:56 14° NE 20:50:57 10° ENE visible
27 Jul 4.9 22:28:51 10° N 22:34:57 48° ENE 22:41:05 10° SE visible
28 Jul 4.6 00:14:18 10° NNW 00:20:12 42° W 00:26:07 10° SSW visible
28 Jul 6.2 21:07:46 10° N 21:12:12 19° NE 21:16:38 10° E visible
28 Jul 4.3 22:52:20 10° N 22:58:40 71° ENE 23:05:03 10° SSE visible
29 Jul 5.7 21:30:57 10° N 21:36:18 28° ENE 21:41:38 10° ESE visible
29 Jul 4.0 23:15:55 10° NNW 23:22:15 78° W 23:28:32 10° S visible
30 Jul 6.5 20:10:54 10° NNE 20:12:57 11° NE 20:15:00 10° ENE visible
30 Jul 5.1 21:54:17 10° N 22:00:14 40° ENE 22:06:11 10° SE visible
30 Jul 4.3 23:39:35 10° NNW 23:45:42 52° W 23:51:29 12° SSW visible
